Location: Koszewko
(53.2876°N, 14.9061°E)
Time: 23:21:11
(UTC+00:00)

Helios 1A Rocket - Pass Details

Date: 03 March 2021
Orbit: 563 x 585 km, 98.3° (Epoch: 12 April)

Event Time Altitude Azimuth Distance (km) Brightness Sun altitude
Rises 17:39:31 0° 158° (SSE) 2,768 6.2 -9.3°
Reaches altitude 10° 17:41:40 10° 156° (SSE) 1,872 5.3 -9.6°
Maximum altitude 17:45:42 74° 72° (ENE) 599 2.8 -10.2°
Drops below altitude 10° 17:49:45 10° 348° (NNW) 1,876 5.7 -10.8°
Sets 17:51:54 0° 347° (NNW) 2,776 6.6 -11.2°
